Regional Weather Roundup
Issued by NWS

Home | Current Version | Previous Version | Text Only | Print | Product List | Glossary Off
Versions: 1 2 3 4 5 6 7 8 9 10 11 12 13 14 15 16 17 18 19 20 21 22 23 24 25 26 27 28 29 30 31 32 33 34 35 36 37 38 39 40 41 42 43 44 45 46 47 48 49 50

000
ASUS43 KDMX 250001
RWRIA

WEATHER ROUNDUP FOR IOWA
NATIONAL WEATHER SERVICE DES MOINES IA
700 PM CDT SUN SEP 24 2017

NOTE: "FAIR" INDICATES FEW OR NO CLOUDS BELOW 12,000 FEET WITH NO
SIGNIFICANT WEATHER AND/OR OBSTRUCTIONS TO VISIBILITY.

* - THESE STATIONS ARE NOT NWS STATIONS...THUS NOT UNDER NWS
QUALITY CONTROL.  THEY ALSO DO NOT REPORT WEATHER SUCH
AS PRECIPITATION OR FOG.

IAZ001>003-012>014-020>022-031>034-043>046-250100-
   NORTHWEST IOWA

CITY           SKY/WX    TMP DP  RH WIND       PRES   REMARKS
CARROLL *      CLOUDY    73  68  83 W7        29.90S
CHEROKEE *     LGT RAIN  69  67  93 N5        29.92R
DENISON *      CLOUDY    68  68 100 CALM      29.91S
LE MARS *      CLOUDY    66  61  82 VRB5      29.92S
ORANGE CITY *  CLOUDY    66  63  88 NW8       29.93F
SHELDON *      CLOUDY    68  63  83 W8        29.91F
SIOUX CITY     CLOUDY    65  61  87 NW9       29.93F
6HR MIN TEMP:  65; 6HR MAX TEMP:  86; 6HR PCP:  0.06;

SPENCER        CLOUDY    70  67  90 W5        29.91F
6HR MIN TEMP:  70; 6HR MAX TEMP:  89; 6HR PCP:  0.48;

STORM LAKE *   CLOUDY    66  64  94 CALM      29.93R
$$

IAZ055>058-069>071-079>083-090>094-250100-
   SOUTHWEST IOWA

CITY           SKY/WX    TMP DP  RH WIND       PRES   REMARKS
ATLANTIC *     CLOUDY    73  68  83 CALM      29.90R
AUDUBON *      CLOUDY    73  66  78 W5        29.93R
CLARINDA *     CLEAR     82  64  54 S6        29.90S HX  84
COUNCIL BLFS * PTCLDY    75  70  83 SE3       29.88F
CRESTON *      CLEAR     81  64  57 S8        29.93R HX  82
HARLAN  *      CLOUDY    72  70  94 CALM      29.93R
LAMONI         PTCLDY    83  64  52 S5        29.92R HX  84
6HR MIN TEMP:  83; 6HR MAX TEMP:  90;

RED OAK *      MOCLDY    75  68  78 CALM      29.88S
SHENANDOAH *   CLOUDY    77  66  69 CALM      29.88S
$$

IAZ047>049-059>061-072>074-084-250100-
   CENTRAL IOWA

CITY           SKY/WX    TMP DP  RH WIND       PRES   REMARKS
AMES           CLEAR     82  63  52 S9        29.90R HX  83
6HR MIN TEMP:  82; 6HR MAX TEMP:  90;

ANKENY *       CLEAR     82  63  51 S5        29.91S HX  83
BOONE *        CLEAR     82  61  47 S8        29.90S HX  83
CHARITON *     CLEAR     81  64  57 SE7       29.92S HX  82
DES MOINES     PTCLDY    84  62  47 SE7       29.90R HX  85
6HR MIN TEMP:  84; 6HR MAX TEMP:  92;

GRINNELL*      CLEAR     81  63  54 S5        29.94S HX  82
KNOXVILLE *    CLEAR     82  63  51 SE6       29.91S HX  83
MARSHALLTOWN   CLEAR     82  62  50 SE6       29.91S HX  83
6HR MIN TEMP:  82; 6HR MAX TEMP:  91;

NEWTON *       CLEAR     81  63  54 S7        29.92S HX  82
PELLA *        CLEAR     83  62  48 SE5       29.93S HX  84
PERRY *          N/A     84  58  41 SE7       29.89S HX  83
$$

IAZ004>006-015-016-023>025-035-036-250100-
   NORTH CENTRAL IOWA

CITY           SKY/WX    TMP DP  RH WIND       PRES   REMARKS
ALGONA *       CLOUDY    77  64  65 SW6G14    29.89S
CLARION *      CLEAR     81  63  54 S7        29.90S HX  82
ESTHERVILLE    MOCLDY    70  68  93 W6        29.90R
6HR MIN TEMP:  70; 6HR MAX TEMP:  88; 6HR PCP:  0.06;

FORT DODGE *   MOCLDY    78  63  59 W5        29.90R HX  80
MASON CITY     CLEAR     80  61  52 S8        29.91S HX  81
6HR MIN TEMP:  80; 6HR MAX TEMP:  90;

FOREST CITY *    N/A     81  61  50 S8        29.90R HX  81
WEBSTER CITY * CLEAR     82  61  47 S6        29.88S HX  83
IOWA FALLS *     N/A     82  62  49 S8        29.93R HX  83
$$

IAZ007>011-017>019-026>030-037>042-050>054-066-250100-
   NORTHEAST IOWA

CITY           SKY/WX    TMP DP  RH WIND       PRES   REMARKS
CEDAR RAPIDS   CLEAR     82  61  48 SE5       29.94S HX  83
6HR MIN TEMP:  82; 6HR MAX TEMP:  91;

CHARLES CITY * CLEAR     81  63  54 S6        29.92S HX  82
CLINTON *      CLEAR    N/A N/A N/A SE6       29.97S
DECORAH *      CLOUDY    81  64  57 SE7       29.93S HX  82
DUBUQUE        CLEAR     77  63  61 SE6       29.98S
6HR MIN TEMP:  77; 6HR MAX TEMP:  86;

MONTICELLO *   CLEAR     81  63  54 CALM      29.95S HX  82
OELWEIN *      CLEAR     82  64  54 S7        29.94S HX  84
WATERLOO       CLEAR     82  60  47 S8        29.91R HX  82
6HR MIN TEMP:  82; 6HR MAX TEMP:  91;

$$

IAZ064-065-067-068-078-250100-
   EAST CENTRAL IOWA

CITY           SKY/WX    TMP DP  RH WIND       PRES   REMARKS
DAVENPORT      CLEAR     78  65  63 SE5       29.98S HX  80
6HR MIN TEMP:  78; 6HR MAX TEMP:  89;

IOWA CITY      CLEAR     84  63  49 SE5       29.95S HX  85
6HR MIN TEMP:  84; 6HR MAX TEMP:  93;

MUSCATINE *    CLEAR     84  64  51 SE3       29.95R HX  86
QUAD CITIES    CLEAR     78  67  68 SE5       29.95S HX  80
6HR MIN TEMP:  78; 6HR MAX TEMP:  91;

$$

IAZ062-063-075>077-085>089-095>099-250100-
   SOUTHEAST IOWA

CITY           SKY/WX    TMP DP  RH WIND       PRES   REMARKS
BURLINGTON     CLEAR     81  65  58 SE5       29.95S HX  83
6HR MIN TEMP:  81; 6HR MAX TEMP:  90;

FAIRFIELD *    CLEAR     81  63  54 SE3       29.94S HX  82
FORT MADISON * CLEAR     84  63  48 SE5       29.96S HX  85
KEOKUK *       CLEAR     84  61  45 SE5       29.94S HX  84
OSKALOOSA *      N/A     81  63  52 SE5       29.93S HX  82
OTTUMWA        CLEAR     81  64  56 SE6       29.93S HX  82
6HR MIN TEMP:  81; 6HR MAX TEMP:  90;

WASHINGTON *   CLEAR     81  64  57 SE5       29.95S HX  82
$$

ABBREVIATIONS USED IN REMARKS
   TC - TEMPERATURES IN CELSIUS
  WCI - WIND CHILL INDEX
   HX - HEAT INDEX
  VSB - VISIBILITY
$$





USA.gov is the U.S. government's official web portal to all federal, state and local government web resources and services.